Location: Hohenfelde
(53.8441°N, 9.6220°E)
Time: 12:22:53
(UTC+00:00)

Cosmos 1607 - Pass Details

Date: 14 July 2020
Orbit: 912 x 990 km, 65.0° (Epoch: 12 August)

Event Time Altitude Azimuth Distance (km) Brightness Sun altitude
Exits shadow 00:20:03 10° 233° (SW) 2,674 5.9 -13.7°
Reaches altitude 10° 00:20:05 10° 233° (SW) 2,657 5.8 -13.7°
Maximum altitude 00:26:19 74° 319° (NW) 999 4.2 -13.5°
Drops below altitude 10° 00:32:42 10° 44° (NE) 2,724 7.3 -13.2°
Sets 00:35:18 0° 47° (NE) 3,683 8.1 -13.1°
